Weather History for KC29 - March, 2014

Change the Weather History Date:

Thursday, March 27, 2014

  Actual Average (KMSN) Record (KMSN)
Temperature  
Mean Temperature 41 °F 38 °F  
Max Temperature 48 °F 48 °F 78 °F (1945)
Min Temperature 35 °F 29 °F 2 °F (1965)
Degree Days  
Heating Degree Days 24 27  
Month to date heating degree days 860  
Since 1 July heating degree days 6346  
Cooling Degree Days 0 0  
Month to date cooling degree days 0  
Year to date cooling degree days 0  
Moisture  
Dew Point 36 °F    
Average Humidity 85    
Maximum Humidity 95    
Minimum Humidity 43    
Precipitation  
Precipitation 0.15 in 0.08 in 1.34 in (1887)
Month to date precipitation 1.83  
Year to date precipitation 4.51  
Snow  
Snow 0.00 in 0.20 in 8.50 in (1948)
Month to date snowfall 6.3  
Since 1 July snowfall 47.4  
Snow Depth -    
Sea Level Pressure  
Sea Level Pressure 29.60 in    
Wind  
Wind Speed 15 mph (South)    
Max Wind Speed 23 mph    
Max Gust Speed 30 mph    
Visibility 6 miles    
Events      
T = Trace of Precipitation, MM = Missing Value Source: NWS Daily Summary

Daily Weather History Graph

Daily Weather History Graph

Search for Another Location

Airport or City:

Trip Planner

Search our weather history database for the weather conditions in past years. The results will help you decide how hot, cold, wet, or windy it might be!

Date:

Astronomy

Mar. 27, 2014 Rise Set
Actual Time 6:48 AM CDT 7:18 PM CDT
Civil Twilight 6:20 AM CDT 7:47 PM CDT
Nautical Twilight 5:46 AM CDT 8:21 PM CDT
Astronomical Twilight 5:12 AM CDT 8:55 PM CDT
Moon 4:45 AM CDT (3/27) 4:01 PM CDT (3/27)
Length of Visible Light 13h 26m
Length of Day
12h 29m
Waning Crescent, 13% of the Moon is Illuminated
Mar 27
Waning Crescent
Mar 30
New
Apr 7
First Quarter
Apr 15
Full
Apr 22
Last Quarter

Hourly Weather History & Observations

Time (CDT) Temp. Windchill Dew Point Humidity Pressure Visibility Wind Dir Wind Speed Gust Speed Precip Events Conditions
12:15 AM 39.4 °F 31.1 °F 19.8 °F 45% 29.84 in 10.0 mi SSW 15.0 mph 24.2 mph N/A   Overcast
12:35 AM 39.9 °F 31.4 °F 19.4 °F 44% 29.83 in 10.0 mi SSW 16.1 mph 29.9 mph N/A   Overcast
12:55 AM 40.1 °F 31.0 °F 19.4 °F 43% 29.83 in 10.0 mi SSW 18.4 mph 27.6 mph N/A   Overcast
1:15 AM 40.5 °F 30.7 °F 19.4 °F 43% 29.82 in 10.0 mi SSW 21.9 mph 28.8 mph N/A   Overcast
1:30 AM 40.5 °F 30.4 °F 19.6 °F 43% 29.82 in 10.0 mi SSW 23.0 mph 28.8 mph N/A   Overcast
1:55 AM 40.8 °F 32.0 °F 20.3 °F 44% 29.82 in 10.0 mi SSW 18.4 mph 25.3 mph N/A   Overcast
2:15 AM 41.0 °F 32.8 °F 21.2 °F 45% 29.81 in 10.0 mi SSW 16.1 mph 21.9 mph N/A   Overcast
2:35 AM 41.0 °F 33.1 °F 23.0 °F 49% 29.81 in 10.0 mi SSW 15.0 mph 24.2 mph N/A   Overcast
2:55 AM 40.5 °F 32.5 °F 23.9 °F 52% 29.80 in 10.0 mi South 15.0 mph 25.3 mph N/A   Overcast
3:15 AM 39.9 °F 32.1 °F 25.0 °F 55% 29.80 in 10.0 mi South 13.8 mph 20.7 mph N/A   Overcast
3:35 AM 39.4 °F 31.4 °F 26.2 °F 59% 29.79 in 10.0 mi South 13.8 mph 24.2 mph N/A   Overcast
3:55 AM 38.8 °F 30.4 °F 26.6 °F 61% 29.77 in 10.0 mi South 15.0 mph 23.0 mph N/A   Overcast
4:15 AM 38.3 °F 28.4 °F 28.6 °F 68% 29.76 in 10.0 mi South 19.6 mph 26.5 mph N/A   Overcast
4:35 AM 36.5 °F 27.4 °F 31.6 °F 83% 29.76 in 5.0 mi South 15.0 mph 25.3 mph N/A   Overcast
4:55 AM 35.6 °F 27.5 °F 32.5 °F 89% 29.75 in 5.0 mi South 11.5 mph 17.3 mph N/A   Overcast
5:15 AM 35.4 °F 26.8 °F 32.9 °F 91% 29.75 in 5.0 mi South 12.7 mph 19.6 mph N/A   Overcast
5:35 AM 35.6 °F 26.2 °F 33.3 °F 91% 29.74 in 7.0 mi South 15.0 mph 18.4 mph N/A   Overcast
5:55 AM 35.6 °F 26.6 °F 33.4 °F 92% 29.73 in 5.0 mi South 13.8 mph 19.6 mph N/A   Overcast
6:15 AM 35.6 °F 26.2 °F 33.6 °F 92% 29.73 in 5.0 mi South 15.0 mph 21.9 mph N/A   Overcast
6:35 AM 36.0 °F 27.1 °F 34.0 °F 93% 29.72 in 7.0 mi South 13.8 mph 23.0 mph N/A   Overcast
6:55 AM 36.3 °F 26.8 °F 34.3 °F 93% 29.72 in 5.0 mi South 16.1 mph 25.3 mph N/A   Overcast
7:15 AM 36.5 °F 26.3 °F 34.3 °F 92% 29.72 in 4.0 mi South 18.4 mph 23.0 mph N/A   Overcast
7:35 AM 36.5 °F 27.4 °F 34.7 °F 93% 29.72 in 2.5 mi South 15.0 mph 21.9 mph N/A   Overcast
7:55 AM 36.9 °F 27.5 °F 35.1 °F 93% 29.71 in 2.5 mi South 16.1 mph 25.3 mph N/A   Overcast
8:15 AM 36.9 °F 26.5 °F 35.1 °F 93% 29.70 in 4.0 mi South 19.6 mph 24.2 mph N/A   Overcast
8:35 AM 37.4 °F 28.5 °F 35.4 °F 93% 29.70 in 5.0 mi South 15.0 mph 25.3 mph N/A   Overcast
8:55 AM 37.4 °F 27.8 °F 35.6 °F 93% 29.69 in 5.0 mi South 17.3 mph 24.2 mph N/A   Overcast
9:15 AM 37.4 °F 27.8 °F 35.4 °F 93% 29.68 in 4.0 mi South 17.3 mph 21.9 mph N/A   Overcast
9:35 AM 37.4 °F 29.3 °F 35.6 °F 93% 29.68 in 4.0 mi South 12.7 mph 20.7 mph N/A   Overcast
9:55 AM 37.8 °F 29.0 °F 36.0 °F 93% 29.68 in 4.0 mi South 15.0 mph - N/A   Overcast
10:15 AM 38.3 °F 30.1 °F 36.5 °F 93% 29.67 in 5.0 mi South 13.8 mph 25.3 mph N/A   Overcast
10:35 AM 38.7 °F 29.1 °F 36.7 °F 93% 29.66 in 4.0 mi South 18.4 mph 25.3 mph N/A   Overcast
10:55 AM 39.2 °F 30.8 °F 36.9 °F 91% 29.65 in 5.0 mi South 15.0 mph 24.2 mph N/A   Overcast
11:15 AM 39.2 °F 31.2 °F 36.9 °F 91% 29.64 in 5.0 mi South 13.8 mph 21.9 mph N/A   Overcast
11:35 AM 39.2 °F 30.8 °F 36.5 °F 90% 29.63 in 5.0 mi South 15.0 mph 24.2 mph N/A   Overcast
11:55 AM 39.2 °F 31.2 °F 36.5 °F 90% 29.62 in 5.0 mi South 13.8 mph 21.9 mph N/A   Overcast
12:15 PM 39.4 °F 30.7 °F 37.0 °F 91% 29.61 in 3.0 mi South 16.1 mph 21.9 mph N/A   Overcast
12:35 PM 39.2 °F 30.8 °F 36.9 °F 91% 29.61 in 3.0 mi South 15.0 mph 20.7 mph N/A   Overcast
12:55 PM 38.8 °F 30.8 °F 36.9 °F 93% 29.60 in 3.0 mi South 13.8 mph 21.9 mph N/A   Overcast
1:15 PM 38.8 °F 31.6 °F 37.0 °F 93% 29.58 in 3.0 mi SSE 11.5 mph 17.3 mph N/A   Overcast
1:35 PM 39.0 °F 33.4 °F 37.2 °F 93% 29.57 in 3.0 mi SSE 8.1 mph - N/A   Overcast
1:55 PM 39.2 °F 32.5 °F 37.4 °F 93% 29.56 in 3.0 mi SSE 10.4 mph - N/A   Overcast
2:15 PM 39.6 °F 32.1 °F 38.1 °F 95% 29.54 in 5.0 mi SSE 12.7 mph 16.1 mph N/A   Overcast
2:35 PM 40.1 °F 32.7 °F 38.3 °F 93% 29.53 in 7.0 mi SSE 12.7 mph 18.4 mph N/A   Overcast
2:55 PM 40.3 °F 33.4 °F 38.3 °F 93% 29.53 in 5.0 mi SSE 11.5 mph - N/A   Overcast
3:15 PM 40.5 °F 33.2 °F 38.7 °F 93% 29.51 in 3.0 mi South 12.7 mph 16.1 mph N/A   Overcast
3:35 PM 41.0 °F 33.9 °F 39.4 °F 94% 29.51 in 3.0 mi South 12.7 mph 16.1 mph N/A   Overcast
3:55 PM 41.4 °F 34.7 °F 39.7 °F 94% 29.50 in 3.0 mi South 11.5 mph - N/A   Overcast
4:15 PM 41.9 °F 34.6 °F 40.1 °F 93% 29.48 in 4.0 mi South 13.8 mph 18.4 mph N/A   Overcast
4:35 PM 41.9 °F 35.4 °F 40.3 °F 94% 29.47 in 4.0 mi South 11.5 mph 19.6 mph N/A   Overcast
4:55 PM 42.3 °F 35.5 °F 40.6 °F 94% 29.45 in 5.0 mi South 12.7 mph 17.3 mph 0.01 in   Overcast
5:15 PM 42.4 °F 35.0 °F 41.0 °F 95% 29.44 in 5.0 mi South 15.0 mph 21.9 mph N/A   Overcast
5:35 PM 42.8 °F 36.2 °F 41.2 °F 94% 29.44 in 7.0 mi South 12.7 mph - 0.01 in   Overcast
5:55 PM 43.3 °F 36.1 °F 41.5 °F 93% 29.42 in 7.0 mi South 15.0 mph 20.7 mph 0.01 in   Overcast
6:15 PM 43.7 °F 37.7 °F 41.9 °F 93% 29.41 in 7.0 mi South 11.5 mph - 0.01 in   Overcast
6:35 PM 44.2 °F 37.6 °F 42.4 °F 93% 29.40 in 7.0 mi South 13.8 mph 18.4 mph 0.01 in   Overcast
6:55 PM 44.6 °F 38.8 °F 42.4 °F 92% 29.40 in 7.0 mi South 11.5 mph 16.1 mph 0.01 in   Overcast
7:15 PM 45.0 °F 38.5 °F 42.8 °F 92% 29.40 in 7.0 mi South 13.8 mph - N/A   Overcast
7:35 PM 45.1 °F 40.3 °F 43.0 °F 92% 29.38 in 7.0 mi South 9.2 mph 17.3 mph N/A   Overcast
7:55 PM 45.5 °F 40.3 °F 43.2 °F 92% 29.39 in 10.0 mi South 10.4 mph 20.7 mph N/A   Overcast
8:15 PM 45.7 °F 40.6 °F 43.3 °F 92% 29.39 in 7.0 mi South 10.4 mph - N/A   Overcast
8:35 PM 46.0 °F 39.9 °F 43.7 °F 92% 29.39 in 7.0 mi South 13.8 mph 20.7 mph N/A   Overcast
8:55 PM 46.8 °F - 44.6 °F 92% 29.38 in 5.0 mi South 11.5 mph - 0.02 in   Overcast
9:15 PM 47.5 °F - 45.5 °F 93% 29.38 in 5.0 mi South 9.2 mph - 0.05 in   Overcast
9:35 PM 47.7 °F - 45.7 °F 93% 29.38 in 7.0 mi South 9.2 mph - 0.06 in   Overcast
9:55 PM 47.8 °F - 45.5 °F 92% 29.38 in 7.0 mi South 9.2 mph - 0.06 in   Overcast
10:15 PM 47.7 °F - 45.5 °F 92% 29.38 in 5.0 mi SSW 9.2 mph - N/A   Overcast
10:35 PM 47.7 °F - 45.3 °F 92% 29.39 in 7.0 mi WNW 10.4 mph - N/A   Overcast
10:55 PM 46.4 °F 44.3 °F 44.4 °F 93% 29.39 in 5.0 mi NW 4.6 mph - N/A   Overcast
11:15 PM 45.1 °F 42.8 °F 43.5 °F 94% 29.39 in 2.5 mi NW 4.6 mph - 0.01 in   Overcast
11:35 PM 43.9 °F 39.9 °F 42.6 °F 95% 29.40 in 4.0 mi North 6.9 mph - 0.03 in   Overcast
11:55 PM 42.3 °F 39.4 °F 41.0 °F 95% 29.40 in 4.0 mi North 4.6 mph - 0.04 in   Overcast